カタログに戻る

FENGYUN 1C DEB

運用中PO
NORAD 38124·DEBRIS·🇨🇳 China

打ち上げ May 10, 1999 から Taiyuan Satellite Launch Center

Loading…

次のパス (今後24時間)

TLE

最新Source: Space-Track

元期: Sep 13, 2026, 12:07 UTC

1 38124U 99025EPV 26256.50526712  .00000103  00000-0  16865-3 0  9995
2 38124  97.8120 152.4469 0355600 314.6753  42.5904 13.41050941582643

AllMySatでFENGYUN 1C DEBをリアルタイム追跡

Download on the App Store